TimeCDT,TemperatureF,Dew PointF,Humidity,Sea Level PressureIn,VisibilityMPH,Wind Direction,Wind SpeedMPH,Gust SpeedMPH,PrecipitationIn,Events,Conditions,WindDirDegrees,DateUTC
12:58 AM,48.2,42.8,82,30.19,10.0,NNW,3.5,-,N/A,,Clear,340,2013-08-22 05:58:00
1:58 AM,46.2,41.9,85,30.20,10.0,NW,3.5,-,N/A,,Clear,310,2013-08-22 06:58:00
2:58 AM,43.3,39.9,88,30.22,10.0,NNW,4.6,-,N/A,,Clear,330,2013-08-22 07:58:00
3:58 AM,43.7,40.5,88,30.22,10.0,WNW,3.5,-,N/A,,Clear,290,2013-08-22 08:58:00
4:58 AM,45.7,42.1,87,30.22,10.0,SW,4.6,-,N/A,,Clear,230,2013-08-22 09:58:00
5:58 AM,44.1,41.4,90,30.23,10.0,WSW,3.5,-,N/A,,Clear,240,2013-08-22 10:58:00
6:58 AM,45.1,41.0,85,30.23,10.0,Calm,Calm,-,N/A,,Clear,0,2013-08-22 11:58:00
7:58 AM,49.6,45.7,86,30.24,3.0,SW,1.2,-,N/A,,Clear,220,2013-08-22 12:58:00
8:58 AM,61.2,48.6,63,30.24,10.0,South,4.6,-,N/A,,Clear,180,2013-08-22 13:58:00
9:58 AM,69.4,46.2,43,30.24,10.0,SSE,6.9,-,N/A,,Clear,150,2013-08-22 14:58:00
10:58 AM,73.2,40.5,31,30.24,9.0,SSE,8.1,-,N/A,,Clear,150,2013-08-22 15:58:00
11:58 AM,74.8,35.8,24,30.23,10.0,Variable,5.8,-,N/A,,Clear,0,2013-08-22 16:58:00
12:58 PM,76.6,38.8,26,30.21,10.0,Variable,4.6,-,N/A,,Clear,0,2013-08-22 17:58:00
1:58 PM,77.4,37.4,24,30.19,10.0,Variable,4.6,-,N/A,,Clear,0,2013-08-22 18:58:00
2:58 PM,78.8,38.7,24,30.18,10.0,South,9.2,-,N/A,,Clear,180,2013-08-22 19:58:00
3:58 PM,79.5,39.7,24,30.16,10.0,South,6.9,-,N/A,,Clear,190,2013-08-22 20:58:00
4:58 PM,79.7,42.3,26,30.13,10.0,South,6.9,-,N/A,,Clear,180,2013-08-22 21:58:00
5:58 PM,79.3,43.0,27,30.12,10.0,SSE,8.1,-,N/A,,Clear,150,2013-08-22 22:58:00
6:58 PM,78.1,44.2,30,30.10,10.0,East,13.8,-,N/A,,Clear,90,2013-08-22 23:58:00
7:58 PM,74.3,46.6,37,30.09,10.0,East,9.2,-,N/A,,Clear,90,2013-08-23 00:58:00
8:58 PM,69.1,48.9,49,30.07,10.0,East,8.1,-,N/A,,Clear,90,2013-08-23 01:58:00
9:58 PM,65.3,50.9,60,30.08,10.0,ESE,8.1,-,N/A,,Clear,110,2013-08-23 02:58:00
10:58 PM,61.3,50.0,66,30.08,10.0,ESE,6.9,-,N/A,,Clear,120,2013-08-23 03:58:00
11:58 PM,57.2,50.0,77,30.07,10.0,SE,6.9,-,N/A,,Clear,130,2013-08-23 04:58:00